Change the Weather History Date:

Monday, January 28, 2002

  Actual Average Record
Temperature  
Mean Temperature 50 °F -  
Max Temperature 59 °F 32 °F 59 °F (2002)
Min Temperature 41 °F 18 °F -2 °F (2000)
Degree Days  
Heating Degree Days 15    
Moisture  
Dew Point 31 °F    
Average Humidity 51    
Maximum Humidity 81    
Minimum Humidity 37    
Precipitation  
Precipitation 0.00 in - - ()
Sea Level Pressure  
Sea Level Pressure 30.12 in    
Wind  
Wind Speed 17 mph (West)    
Max Wind Speed 23 mph    
Max Gust Speed 30 mph    
Visibility 10 miles    
Events      
Averages and records for this station are not official NWS values.
T = Trace of Precipitation, MM = Missing Value Source: NWS Daily Summary

Daily Weather History Graph

Daily Weather History Graph

Search for Another Location

Airport or City:

Trip Planner

Search our weather history database for the weather conditions in past years. The results will help you decide how hot, cold, wet, or windy it might be!

Date:

Astronomy

Jan. 28, 2002 Rise Set
Actual Time 7:27 AM EST 5:38 PM EST
Civil Twilight 6:59 AM EST 6:06 PM EST
Nautical Twilight 6:27 AM EST 6:37 PM EST
Astronomical Twilight 5:56 AM EST 7:08 PM EST
Moon 5:25 PM EST 7:25 AM EST
Length of Visible Light 11h 07m
Length of Day
10h 11m
Full, 100% of the Moon is Illuminated
Jan 28
Full
Jan 28
Full
Feb 4
Last Quarter
Feb 12
New
Feb 20
First Quarter

Hourly Weather History & Observations

Time (EST) Temp. Windchill Dew Point Humidity Pressure Visibility Wind Dir Wind Speed Gust Speed Precip Events Conditions
12:03 AM 46.4 °F 39.0 °F 21.2 °F 37% 30.18 in 10.0 mi West 19.6 mph - N/A   Clear
12:21 AM 46.4 °F 39.2 °F 24.8 °F 43% 30.18 in 10.0 mi West 18.4 mph - N/A   Clear
12:43 AM 46.4 °F 39.0 °F 23.0 °F 40% 30.17 in 10.0 mi West 19.6 mph 25.3 mph N/A   Clear
1:01 AM 46.4 °F 38.7 °F 23.0 °F 40% 30.17 in 10.0 mi West 20.7 mph - N/A   Clear
1:21 AM 48.2 °F - 23.0 °F 37% 30.16 in 10.0 mi West 18.4 mph - N/A   Clear
1:42 AM 46.4 °F 39.5 °F 24.8 °F 43% 30.16 in 10.0 mi West 17.3 mph - N/A   Clear
2:01 AM 46.4 °F 39.5 °F 23.0 °F 40% 30.16 in 10.0 mi West 17.3 mph - N/A   Clear
2:21 AM 46.4 °F 39.8 °F 23.0 °F 40% 30.15 in 10.0 mi West 16.1 mph - N/A   Clear
2:41 AM 44.6 °F 37.8 °F 24.8 °F 46% 30.14 in 10.0 mi West 15.0 mph - N/A   Clear
3:01 AM 44.6 °F 37.2 °F 24.8 °F 46% 30.14 in 10.0 mi West 17.3 mph - N/A   Clear
3:21 AM 44.6 °F 37.4 °F 24.8 °F 46% 30.14 in 10.0 mi West 16.1 mph - N/A   Clear
3:41 AM 44.6 °F 37.8 °F 24.8 °F 46% 30.13 in 10.0 mi West 15.0 mph - N/A   Clear
4:01 AM 44.6 °F 37.8 °F 24.8 °F 46% 30.13 in 10.0 mi West 15.0 mph - N/A   Clear
4:21 AM 44.6 °F 37.2 °F 23.0 °F 43% 30.13 in 10.0 mi West 17.3 mph - N/A   Clear
4:43 AM 44.6 °F 36.6 °F 24.8 °F 46% 30.13 in 10.0 mi WNW 19.6 mph - N/A   Clear
5:03 AM 44.6 °F 36.9 °F 24.8 °F 46% 30.12 in 10.0 mi WNW 18.4 mph - N/A   Clear
5:21 AM 44.6 °F 36.6 °F 24.8 °F 46% 30.12 in 10.0 mi West 19.6 mph - N/A   Clear
5:41 AM 44.6 °F 36.9 °F 24.8 °F 46% 30.12 in 10.0 mi WNW 18.4 mph 26.5 mph N/A   Clear
6:01 AM 42.8 °F 34.3 °F 24.8 °F 49% 30.12 in 10.0 mi West 19.6 mph - N/A   Clear
6:21 AM 42.8 °F 33.8 °F 26.6 °F 53% 30.12 in 10.0 mi West 21.9 mph - N/A   Clear
6:41 AM 42.8 °F 33.5 °F 28.4 °F 57% 30.12 in 10.0 mi West 23.0 mph 29.9 mph N/A   Clear
7:01 AM 42.8 °F 33.5 °F 30.2 °F 61% 30.11 in 10.0 mi WNW 23.0 mph 27.6 mph N/A   Clear
7:21 AM 41.0 °F 31.9 °F 32.0 °F 70% 30.11 in 10.0 mi WNW 19.6 mph 26.5 mph N/A   Clear
7:43 AM 41.0 °F 31.6 °F 33.8 °F 76% 30.12 in 10.0 mi West 20.7 mph - N/A   Clear
8:01 AM 42.8 °F 34.0 °F 33.8 °F 70% 30.12 in 10.0 mi WNW 20.7 mph 25.3 mph N/A   Clear
8:21 AM 42.8 °F 34.3 °F 35.6 °F 76% 30.12 in 10.0 mi WNW 19.6 mph - N/A   Clear
8:41 AM 42.8 °F 35.4 °F 35.6 °F 76% 30.13 in 10.0 mi WNW 15.0 mph - N/A   Clear
9:01 AM 42.8 °F 35.4 °F 37.4 °F 81% 30.14 in 10.0 mi WNW 15.0 mph 21.9 mph N/A   Clear
9:22 AM 42.8 °F 35.4 °F 37.4 °F 81% 30.13 in 10.0 mi West 15.0 mph - N/A   Clear
9:41 AM 44.6 °F 38.4 °F 37.4 °F 76% 30.13 in 10.0 mi West 12.7 mph - N/A   Clear
10:01 AM 44.6 °F 38.4 °F 37.4 °F 76% 30.14 in 10.0 mi West 12.7 mph - N/A   Clear
10:21 AM 46.4 °F 40.7 °F 37.4 °F 71% 30.15 in 10.0 mi WNW 12.7 mph - N/A   Clear
10:41 AM 46.4 °F 40.1 °F 37.4 °F 71% 30.15 in 10.0 mi West 15.0 mph - N/A   Clear
11:01 AM 48.2 °F - 37.4 °F 66% 30.15 in 10.0 mi WNW 12.7 mph - N/A   Clear
11:21 AM 48.2 °F - 35.6 °F 62% 30.15 in 10.0 mi WNW 12.7 mph - N/A   Clear
11:41 AM 51.8 °F - 35.6 °F 54% 30.14 in 10.0 mi WNW 11.5 mph - N/A   Clear
12:01 PM 53.6 °F - 35.6 °F 51% 30.13 in 10.0 mi WNW 12.7 mph - N/A   Clear
12:23 PM 53.6 °F - 35.6 °F 51% 30.12 in 10.0 mi WNW 12.7 mph 17.3 mph N/A   Clear
12:41 PM 55.4 °F - 35.6 °F 47% 30.11 in 10.0 mi WNW 10.4 mph - N/A   Clear
1:01 PM 55.4 °F - 33.8 °F 44% 30.11 in 10.0 mi WNW 11.5 mph - N/A   Clear
1:23 PM 55.4 °F - 33.8 °F 44% 30.11 in 10.0 mi West 13.8 mph - N/A   Clear
1:41 PM 57.2 °F - 33.8 °F 41% 30.10 in 10.0 mi WNW 12.7 mph 17.3 mph N/A   Clear
2:01 PM 57.2 °F - 33.8 °F 41% 30.09 in 10.0 mi WNW 9.2 mph 19.6 mph N/A   Clear
2:21 PM 57.2 °F - 33.8 °F 41% 30.09 in 10.0 mi West 11.5 mph - N/A   Clear
2:41 PM 59.0 °F - 35.6 °F 42% 30.09 in 10.0 mi West 15.0 mph 19.6 mph N/A   Clear
3:01 PM 59.0 °F - 35.6 °F 42% 30.08 in 10.0 mi West 11.5 mph 17.3 mph N/A   Clear
3:21 PM 59.0 °F - 35.6 °F 42% 30.08 in 10.0 mi West 15.0 mph 18.4 mph N/A   Clear
3:41 PM 59.0 °F - 33.8 °F 39% 30.08 in 10.0 mi WSW 12.7 mph 17.3 mph N/A   Clear
4:01 PM 59.0 °F - 33.8 °F 39% 30.08 in 10.0 mi West 16.1 mph 21.9 mph N/A   Clear
4:21 PM 59.0 °F - 33.8 °F 39% 30.09 in 10.0 mi West 13.8 mph 21.9 mph N/A   Clear
4:41 PM 57.2 °F - 33.8 °F 41% 30.08 in 10.0 mi West 13.8 mph 23.0 mph N/A   Clear
5:01 PM 57.2 °F - 32.0 °F 38% 30.08 in 10.0 mi WSW 11.5 mph - N/A   Clear
5:21 PM 55.4 °F - 30.2 °F 38% 30.09 in 10.0 mi West 8.1 mph 16.1 mph N/A   Clear
5:41 PM 53.6 °F - 30.2 °F 41% 30.09 in 10.0 mi WSW 6.9 mph - N/A   Clear
6:02 PM 51.8 °F - - N/A% 30.09 in 10.0 mi WSW 6.9 mph - N/A   Clear
6:21 PM 53.6 °F - 30.2 °F 41% 30.10 in 10.0 mi SW 6.9 mph - N/A   Clear
6:42 PM 53.6 °F - 32.0 °F 44% 30.10 in 10.0 mi SW 10.4 mph - N/A   Clear
7:01 PM 53.6 °F - 32.0 °F 44% 30.10 in 10.0 mi WSW 11.5 mph - N/A   Clear
7:21 PM 53.6 °F - 35.6 °F 51% 30.10 in 10.0 mi WSW 12.7 mph - N/A   Clear
7:41 PM 53.6 °F - 35.6 °F 51% 30.09 in 10.0 mi West 16.1 mph - N/A   Clear
8:01 PM 53.6 °F - 35.6 °F 51% 30.09 in 10.0 mi West 17.3 mph 24.2 mph N/A   Clear
8:21 PM 53.6 °F - 35.6 °F 51% 30.08 in 10.0 mi West 20.7 mph 26.5 mph N/A   Clear
8:41 PM 55.4 °F - 37.4 °F 51% 30.09 in 10.0 mi West 19.6 mph 27.6 mph N/A   Clear
9:01 PM 53.6 °F - 37.4 °F 54% 30.09 in 10.0 mi West 19.6 mph 28.8 mph N/A   Clear
9:21 PM 53.6 °F - 35.6 °F 51% 30.09 in 10.0 mi West 18.4 mph 25.3 mph N/A   Clear
9:41 PM 53.6 °F - 35.6 °F 51% 30.08 in 10.0 mi West 17.3 mph 24.2 mph N/A   Clear
10:01 PM 53.6 °F - 37.4 °F 54% 30.08 in 10.0 mi West 17.3 mph 26.5 mph N/A   Clear
10:21 PM 53.6 °F - 37.4 °F 54% 30.08 in 10.0 mi West 19.6 mph 26.5 mph N/A   Clear
10:41 PM 53.6 °F - 39.2 °F 58% 30.07 in 10.0 mi West 19.6 mph 27.6 mph N/A   Clear
11:01 PM 53.6 °F - 41.0 °F 62% 30.07 in 10.0 mi West 18.4 mph 26.5 mph N/A   Clear
11:21 PM 53.6 °F - 44.6 °F 72% 30.07 in 10.0 mi West 23.0 mph 28.8 mph N/A   Clear
11:41 PM 51.8 °F - 42.8 °F 71% 30.06 in 10.0 mi West 20.7 mph 25.3 mph N/A   Clear